ECMWFFLT1_sfc_temp_000.txt.gz
Temp
80 79 79 79 78 78 78 78 79 79 79 79 78 79 79 79 78 78 77 76 76 74 73 73 73 73 73 71 71 70 71 70 70 69 68 67 69 68 67 67 67 67 66 67 67 68 69 69 69 68 68 69 68 68 67 68 68 70 69 68 69 69 69
78 78 78 78 78 78 78 79 79 80 79 80 79 79 80 79 78 77 77 76 76 76 74 74 74 73 73 72 71 70 70 70 71 73 70 70 71 68 68 68 67 67 66 66 66 66 68 68 69 68 68 70 69 68 68 68 68 68 68 68 68 68 68
78 78 78 78 78 78 78 79 79 80 80 80 80 79 79 79 79 78 77 77 76 76 75 74 75 73 73 72 71 70 71 70 70 70 69 69 69 69 68 68 66 67 67 66 67 68 69 68 68 67 68 68 68 68 68 68 68 68 68 68 68 70 69
77 78 78 78 79 79 79 79 79 81 81 81 81 81 80 79 80 79 78 78 76 76 74 75 75 74 73 72 71 70 71 70 71 70 70 69 69 68 68 67 67 67 67 67 69 70 70 69 68 67 71 68 67 68 67 68 68 67 67 67 68 69 68
77 78 78 77 77 77 77 78 79 80 81 82 82 81 81 81 80 79 79 79 78 77 77 76 76 75 74 74 73 72 72 71 70 70 70 70 69 69 69 68 68 67 68 68 68 69 69 68 67 67 67 67 67 66 67 67 67 67 67 67 67 68 68
75 76 76 77 78 78 78 79 80 81 81 81 81 81 81 81 81 80 79 78 78 78 77 76 75 75 73 74 74 73 71 71 71 70 70 70 69 68 69 69 69 68 67 68 70 68 68 67 67 67 67 67 67 67 66 67 67 67 67 67 67 68 68
76 76 77 77 78 77 78 79 80 81 82 82 82 81 81 81 80 80 79 78 78 77 76 76 76 75 74 74 73 73 71 71 71 71 71 70 69 69 69 69 70 68 69 68 68 68 67 67 67 66 67 66 68 67 67 66 67 67 67 67 67 67 67
77 76 76 78 79 79 79 79 80 82 82 81 81 81 80 80 80 80 79 79 79 78 78 77 76 75 74 74 74 73 72 72 72 71 70 70 69 70 69 69 69 69 67 68 69 67 68 67 67 67 67 67 66 66 66 66 66 66 66 66 66 67 69
77 78 78 79 80 80 80 79 80 80 80 80 79 79 79 79 80 79 79 79 78 78 77 78 77 76 74 74 73 73 73 72 71 71 70 70 69 70 70 70 69 69 69 69 69 68 68 68 68 68 67 66 67 66 66 66 66 67 66 66 66 66 66
76 76 76 79 81 81 80 80 80 79 79 79 78 78 78 78 79 79 79 79 78 78 78 78 77 76 74 74 74 74 73 72 72 72 72 71 70 70 71 71 71 70 69 69 68 68 68 68 68 68 67 67 67 66 66 66 67 67 66 66 66 66 67
76 76 76 77 78 79 79 79 78 78 78 77 77 78 78 78 78 78 78 78 78 78 79 78 78 77 75 75 75 74 73 72 72 72 72 72 71 72 72 73 73 71 71 69 68 68 68 68 68 67 67 67 67 67 66 67 67 66 66 66 66 66 66
74 74 75 76 77 78 78 78 78 78 77 77 77 77 77 77 78 78 78 78 79 78 78 78 78 77 76 76 75 73 73 73 73 73 72 72 72 73 73 73 72 71 71 70 70 69 68 68 68 68 67 66 67 67 66 66 66 66 66 65 66 65 65
73 74 75 77 77 78 77 76 77 77 77 78 78 77 77 77 77 77 77 77 79 79 78 77 77 76 76 77 76 73 73 73 73 73 73 73 72 73 73 73 73 72 71 71 71 70 69 68 67 68 67 67 66 66 67 66 66 64 65 65 65 65 65
75 73 74 75 75 76 76 77 77 77 77 77 77 77 77 77 78 77 76 77 78 78 78 78 77 76 76 76 75 73 73 73 72 73 73 73 72 72 72 72 71 71 70 70 69 70 69 69 68 68 67 67 67 68 67 66 64 64 65 65 65 65 64
72 73 73 73 73 74 75 75 76 76 77 77 78 77 77 77 77 77 77 78 77 78 77 78 76 76 76 76 75 73 72 70 72 74 73 73 72 71 71 71 70 70 69 69 70 71 70 70 69 68 67 67 67 67 67 67 66 66 66 65 64 64 64
72 71 72 73 74 74 75 76 76 76 77 77 77 77 77 76 76 76 76 77 77 77 78 77 76 76 76 75 74 72 72 73 73 73 73 72 72 71 71 71 70 70 69 69 70 69 69 68 68 69 69 68 67 67 68 68 67 68 67 67 66 63 64
71 71 71 72 72 73 75 75 76 76 76 76 77 77 77 77 77 77 77 78 78 77 78 78 76 76 76 74 73 74 73 71 72 73 73 72 72 71 71 71 70 69 68 69 69 69 69 69 68 69 69 69 68 68 68 68 68 66 64 63 65 64 62
71 69 70 72 73 73 72 72 72 73 74 76 77 77 77 77 77 77 76 77 78 79 79 78 77 76 74 73 72 72 71 70 71 73 73 73 72 71 71 71 70 69 68 68 68 68 69 68 68 69 69 69 68 67 68 67 66 63 63 63 63 64 64
71 72 72 70 71 72 73 74 74 74 75 77 77 77 78 78 77 76 77 77 78 77 77 77 77 73 73 74 72 70 70 70 72 73 73 72 72 71 70 69 69 68 68 68 69 68 68 68 68 68 69 69 68 68 68 67 65 62 61 62 62 62 63
73 73 72 72 71 73 73 74 74 75 76 77 78 79 80 79 78 79 79 79 78 77 77 77 75 73 73 72 71 71 70 71 73 73 73 73 72 70 69 69 69 69 70 70 69 68 68 68 68 68 68 68 68 68 68 66 64 61 60 60 60 61 63
70 71 72 71 69 71 72 73 74 74 74 76 78 78 79 78 79 79 78 78 77 78 76 74 72 70 69 69 69 70 70 72 72 72 73 72 71 70 69 69 69 69 70 70 69 68 68 68 68 69 69 70 69 68 67 67 61 59 58 58 59 60 62
74 73 73 73 72 70 72 73 74 75 75 77 77 78 79 79 80 79 80 80 75 72 71 70 68 67 67 67 68 68 69 72 71 72 72 72 71 70 70 69 69 69 69 69 69 69 69 68 69 69 67 65 64 64 65 66 60 58 58 58 58 60 62
77 74 73 71 72 71 71 74 75 76 76 76 77 78 79 80 80 79 77 72 68 70 69 68 67 66 66 67 67 67 70 72 72 72 72 72 70 70 70 69 69 69 70 69 69 69 68 68 67 67 64 65 65 65 65 64 60 57 57 57 57 58 59
78 76 72 71 70 70 70 71 73 75 75 73 73 73 74 76 76 72 69 68 69 68 67 68 67 67 67 67 68 69 70 71 71 72 72 71 70 71 71 71 71 70 70 69 70 69 68 67 65 66 67 66 66 66 64 64 61 56 54 55 55 59 60
77 78 77 78 77 74 73 71 72 74 74 74 73 71 72 72 71 68 67 68 68 69 69 67 67 67 67 68 70 70 69 71 72 73 73 71 72 72 71 70 70 71 69 68 67 66 64 65 63 65 63 65 65 67 65 62 59 54 55 54 55 58 58
73 74 75 73 73 72 72 73 73 71 71 70 68 69 71 71 70 69 68 68 70 70 70 70 70 70 70 70 71 70 70 72 72 73 73 72 72 72 71 71 70 68 67 66 65 64 63 62 63 64 63 64 63 65 63 62 61 60 53 53 53 56 59
73 75 74 73 72 72 70 70 72 71 71 70 69 70 71 72 71 70 70 69 69 70 72 72 72 72 71 71 71 72 73 74 73 73 74 74 73 73 71 68 68 67 66 65 65 65 63 63 64 64 63 62 63 62 61 63 61 60 51 51 51 53 57
74 74 72 72 70 69 68 67 66 68 69 69 70 72 72 71 71 70 68 68 69 71 73 73 73 74 72 71 72 74 73 74 74 74 75 74 72 68 65 66 68 68 67 66 64 63 64 65 64 61 60 60 60 60 59 63 63 57 54 51 49 51 53
73 76 71 68 69 70 70 67 66 68 68 69 71 72 73 73 70 69 69 68 70 73 72 71 72 73 74 74 74 74 74 73 74 74 72 70 69 67 67 67 67 66 66 65 64 63 63 62 61 60 59 57 57 57 57 56 60 59 55 49 47 47 49
67 69 71 73 72 70 70 68 68 68 68 69 69 70 72 72 70 69 69 69 72 72 72 69 70 69 69 68 68 69 72 70 69 69 69 69 69 68 66 64 65 65 66 64 64 63 62 59 59 58 57 57 57 57 57 57 56 58 57 54 49 48 48
67 68 68 68 71 70 69 70 68 68 68 68 68 69 71 72 71 70 69 70 71 70 72 70 69 68 68 68 67 67 68 67 67 68 68 68 68 66 64 63 64 64 65 65 65 62 60 58 58 57 56 55 56 55 55 57 57 56 58 57 55 52 51
66 67 67 68 68 70 69 69 68 68 68 66 68 67 69 69 69 67 67 68 69 70 69 70 69 69 68 67 67 68 70 69 69 68 67 66 67 66 65 65 65 65 64 63 61 60 59 57 56 56 56 55 54 54 54 56 56 54 54 58 57 55 53
66 65 66 67 68 70 68 67 67 67 68 66 67 69 70 69 69 69 69 68 69 68 70 71 69 69 68 67 67 67 66 67 66 66 66 65 64 64 65 64 64 64 62 61 60 59 59 59 58 57 56 55 54 55 57 57 53 51 51 51 50 51 53
64 65 65 66 68 68 67 67 66 66 66 65 67 68 69 70 69 70 70 71 70 70 69 69 68 68 68 68 68 67 66 67 72 65 61 59 60 61 61 60 61 61 60 59 60 59 58 58 58 56 57 56 54 55 57 55 51 50 50 49 51 50 48
61 62 63 65 66 67 68 67 66 66 65 65 67 68 69 69 69 69 67 68 68 68 68 68 68 66 66 66 66 66 68 68 66 62 59 55 52 49 49 52 56 55 51 49 50 55 59 56 55 57 55 56 55 56 56 54 52 52 51 52 48 48 47
63 65 65 65 65 65 66 67 66 65 65 65 67 67 67 66 66 66 66 66 66 66 63 64 65 66 65 65 66 68 68 67 64 60 57 55 53 52 51 48 42 45 52 52 52 48 48 51 53 55 53 51 49 52 55 55 52 49 45 43 41 40 41
65 65 65 66 66 65 65 65 66 65 64 64 65 65 65 64 64 64 65 64 64 64 63 62 63 66 65 65 66 66 68 67 63 60 58 56 55 54 53 50 49 41 41 44 46 44 41 41 44 49 52 54 51 50 49 49 45 42 42 41 40 39 39
66 66 67 66 66 65 65 64 64 64 64 64 65 66 65 64 65 65 66 65 64 64 63 63 61 62 63 64 66 68 69 66 64 60 58 56 55 55 54 52 50 49 43 40 41 41 39 39 41 43 46 48 51 50 49 46 42 41 40 40 40 39 39

ECMWFFLT1_sfc_temp_003.txt.gz
Temp
78 77 77 77 77 77 77 77 77 77 77 77 77 77 77 77 77 76 76 75 75 75 74 73 72 73 72 72 71 71 71 70 70 69 68 67 68 67 67 66 67 67 66 66 66 67 69 69 68 67 66 67 66 66 65 66 67 69 67 66 67 67 67
77 77 77 77 77 77 77 77 77 77 77 77 77 77 78 77 77 76 76 76 76 76 74 73 73 73 73 73 72 71 70 70 70 71 69 69 70 67 68 67 67 67 66 67 67 68 68 68 68 66 67 68 68 67 66 66 66 66 66 66 65 65 65
76 76 77 76 77 76 76 77 77 78 78 78 78 77 77 77 77 77 77 76 76 76 75 73 74 74 74 73 71 70 71 69 69 69 68 68 68 68 68 68 67 67 67 66 67 68 68 68 66 66 67 67 68 67 67 66 67 67 66 66 66 66 65
76 76 76 77 77 77 77 77 77 78 79 79 79 78 78 78 78 78 78 77 76 76 74 74 74 74 74 73 72 70 69 69 70 70 69 69 69 68 68 67 67 67 67 66 68 69 69 68 66 66 70 67 67 66 66 67 66 66 66 65 66 66 66
76 77 77 76 76 76 76 76 77 78 79 80 80 79 79 79 79 79 78 78 78 77 77 76 76 76 74 73 72 71 70 69 69 69 69 69 69 68 68 67 67 67 68 68 66 68 67 67 66 66 66 66 66 66 66 66 66 66 65 65 65 65 65
75 75 75 76 76 76 76 77 78 79 79 79 79 79 79 80 80 79 79 78 78 78 77 76 75 75 74 74 73 71 70 69 70 69 69 69 68 68 68 68 67 68 67 67 68 67 67 66 67 66 66 66 66 66 65 65 65 65 66 65 65 65 66
76 76 76 76 76 76 77 77 78 79 80 80 80 80 80 80 80 80 79 78 78 77 77 76 76 75 74 73 72 72 70 69 69 69 69 69 69 69 68 68 69 68 69 67 67 67 66 66 67 66 67 66 67 66 65 65 65 65 65 64 65 65 64
77 76 76 77 77 78 77 77 78 79 80 80 80 80 80 80 80 79 79 79 78 78 78 77 76 75 74 73 73 73 71 71 70 69 69 69 68 68 67 67 68 69 67 67 68 67 68 67 67 67 66 66 65 65 65 65 65 65 64 65 64 64 66
77 77 77 78 78 78 78 77 78 79 78 79 79 79 79 79 80 79 79 79 79 78 78 79 77 76 74 73 72 72 72 71 70 69 69 69 69 69 69 69 68 68 68 68 67 67 67 68 67 67 66 65 65 64 64 65 65 65 64 64 64 64 64
75 74 76 78 79 79 78 78 78 77 77 77 78 78 78 79 80 80 80 79 79 78 78 78 78 76 74 73 73 73 72 71 70 70 70 70 70 70 70 70 69 69 68 68 67 67 67 67 67 67 66 66 65 65 65 65 65 65 64 64 64 64 64
74 74 75 75 76 77 77 76 76 76 77 77 77 78 78 78 79 79 79 79 79 79 79 79 78 76 74 74 73 73 72 71 71 70 69 71 71 70 71 71 71 70 69 68 67 67 67 67 67 66 65 66 66 66 65 66 65 64 64 64 64 64 64
72 73 73 75 75 75 75 75 76 76 76 77 78 78 78 78 79 79 79 79 80 79 79 78 78 76 75 74 73 72 71 71 71 71 70 71 71 71 72 72 71 70 69 68 68 67 67 67 67 68 66 66 66 66 66 65 64 64 65 64 63 63 64
72 73 74 74 75 76 75 74 74 75 76 77 78 78 78 78 78 79 78 78 79 79 79 78 77 75 74 74 74 72 71 71 71 70 72 72 71 71 71 71 72 71 70 69 69 69 68 67 67 67 67 66 65 65 65 65 65 64 64 64 63 63 63
74 72 73 74 75 74 74 74 74 75 76 76 77 78 78 78 78 78 78 78 78 79 78 78 76 75 74 74 74 72 72 72 71 72 72 73 72 71 71 71 71 70 70 70 69 69 69 68 67 67 66 66 65 66 66 65 65 64 64 63 64 64 63
70 72 73 73 74 73 73 73 73 74 75 76 77 77 77 77 77 77 77 78 77 78 78 78 76 75 74 74 73 72 72 71 72 72 72 72 71 71 71 71 70 71 70 70 69 70 70 70 68 66 65 65 65 66 66 66 66 66 65 64 64 63 63
71 72 72 73 73 73 73 74 74 74 75 75 76 76 76 76 76 77 77 77 78 77 78 77 75 74 74 73 73 73 72 72 71 71 72 71 71 71 71 71 70 70 69 69 69 69 69 68 68 67 67 66 65 65 66 66 67 67 66 67 66 64 64
71 72 72 72 72 72 72 73 74 74 73 74 75 76 76 76 77 77 77 78 78 77 78 77 75 74 74 73 73 72 72 71 71 70 70 71 71 71 70 70 70 69 69 69 68 68 68 68 67 67 67 67 67 66 66 67 68 66 64 65 67 65 62
70 70 70 71 70 70 70 70 71 72 73 75 75 75 76 76 76 76 76 77 77 78 77 77 76 75 74 73 72 71 71 71 71 70 70 69 69 70 70 70 69 69 68 68 67 68 68 68 68 67 67 67 67 67 67 67 66 64 64 64 64 66 64
70 69 69 69 69 69 70 72 73 73 74 75 76 76 77 77 76 76 76 76 77 77 76 76 75 74 73 72 71 71 70 70 69 68 67 68 69 70 70 69 69 69 68 68 68 68 67 67 67 67 67 67 66 67 66 65 66 63 62 63 63 64 64
69 69 68 68 69 70 70 70 70 72 73 74 76 77 78 77 77 77 77 78 78 77 76 75 75 73 72 70 69 68 68 68 67 67 68 68 69 70 70 70 69 70 70 70 68 68 68 68 67 67 66 67 65 64 65 65 64 63 61 61 61 62 64
66 67 68 69 69 70 70 71 72 72 71 72 75 75 75 76 77 77 77 76 75 74 73 73 72 70 70 69 68 68 69 68 68 67 68 68 69 70 70 70 70 70 70 70 69 68 68 68 67 67 66 65 65 65 65 67 64 61 60 59 59 61 63
69 70 69 69 69 69 69 70 72 73 73 75 74 74 76 77 78 78 76 73 74 72 72 71 70 69 69 68 68 69 69 69 68 67 67 67 68 68 68 69 70 70 70 70 69 69 68 67 68 66 65 64 64 64 65 67 62 60 59 58 59 60 62
74 73 74 72 72 72 70 71 72 73 72 71 73 74 76 77 77 75 73 73 72 71 71 70 68 68 68 68 68 69 69 69 68 67 68 67 67 68 68 68 70 70 70 69 69 68 67 67 66 65 64 64 65 65 65 66 64 59 57 57 58 59 60
74 73 71 70 68 67 67 67 69 71 72 71 71 73 72 74 75 73 71 70 69 69 68 68 67 68 68 68 69 68 68 68 68 68 68 67 67 68 69 71 72 72 71 69 69 67 67 66 64 64 64 64 64 64 64 66 63 59 56 56 57 59 59
73 72 70 71 71 68 68 69 71 71 71 71 71 71 72 73 72 71 69 68 68 68 67 66 66 67 68 67 68 67 67 67 68 68 68 67 68 70 70 71 72 72 69 69 68 67 64 65 63 62 62 64 65 66 67 66 63 58 55 55 55 58 57
68 68 68 68 69 68 68 69 71 68 69 70 71 70 71 71 71 70 69 68 68 68 67 66 67 68 67 67 67 68 67 67 67 67 67 68 70 71 71 71 68 65 66 66 65 63 63 64 62 61 61 62 63 65 65 64 62 61 54 53 53 55 58
68 68 69 69 68 70 69 69 71 71 71 72 71 70 71 71 69 69 69 68 67 68 68 67 67 67 67 67 67 67 67 67 68 67 68 69 71 72 69 64 65 66 65 64 63 63 62 62 62 61 61 61 63 63 61 62 60 56 52 51 51 53 55
69 69 69 69 69 67 66 67 67 67 68 67 68 70 70 70 69 69 67 66 66 66 67 67 66 67 67 67 67 67 67 67 67 68 70 71 70 68 67 66 67 67 67 65 64 63 62 61 60 60 61 62 61 59 56 60 61 55 52 50 49 50 53
68 66 67 67 66 67 67 64 64 66 67 67 67 68 68 68 68 67 67 65 65 66 67 66 66 67 67 66 66 67 67 67 68 69 70 69 68 67 65 65 66 64 64 62 62 62 62 61 61 61 61 60 56 55 56 56 58 57 56 50 48 49 50
64 65 66 69 68 66 66 63 64 64 64 66 65 66 66 67 66 66 64 62 65 67 68 68 67 67 66 66 66 66 66 66 67 66 66 66 66 65 64 63 63 63 62 62 62 62 61 60 59 58 58 57 55 56 56 57 57 56 55 53 48 46 46
63 64 65 66 66 66 65 65 64 65 65 66 66 66 66 67 66 65 63 64 66 66 66 66 66 66 66 65 65 66 66 66 64 64 64 65 65 64 64 63 65 64 63 64 64 61 60 58 58 58 57 56 57 55 55 57 56 55 55 54 51 48 47
62 62 63 65 65 66 65 65 64 64 64 64 65 65 66 66 66 64 63 65 67 67 66 66 65 65 65 65 65 65 65 64 64 65 65 65 66 66 66 66 65 64 63 62 61 60 59 58 57 56 56 56 54 54 54 56 56 54 53 57 56 54 52
61 61 61 62 64 67 65 66 65 65 65 63 64 66 67 66 66 65 65 65 66 66 66 66 65 64 63 63 63 64 64 64 64 64 65 65 65 65 64 65 63 64 64 62 61 59 59 59 59 57 56 55 54 54 55 57 55 53 50 49 48 50 51
62 62 62 62 64 64 64 64 64 64 64 63 64 66 66 66 66 67 68 68 68 67 66 65 65 64 64 64 62 63 64 65 68 63 59 58 60 62 61 61 62 64 62 61 61 60 59 59 58 57 57 55 54 54 55 56 55 52 50 48 49 48 45
63 62 61 63 63 63 63 63 63 63 63 63 64 65 65 65 66 67 67 68 68 67 67 66 66 64 63 63 64 65 65 62 61 59 57 56 52 50 49 51 54 56 53 50 51 57 62 60 58 58 57 57 55 54 54 55 54 54 51 51 49 48 48
64 64 63 62 63 63 64 64 63 64 64 64 64 65 65 65 66 67 68 68 68 67 65 65 63 63 62 62 61 62 62 62 61 58 57 55 53 52 51 48 42 45 53 52 52 47 45 51 55 56 55 54 50 53 54 54 54 49 44 40 40 40 41
64 63 62 63 62 62 63 63 65 65 64 64 64 64 64 64 64 64 66 65 65 67 66 63 61 61 61 62 61 60 61 61 60 58 57 56 55 54 52 50 49 41 41 45 46 43 41 42 46 49 51 55 50 48 47 48 43 41 40 39 39 39 39
63 62 63 63 63 63 63 63 64 64 63 64 64 64 64 64 64 64 64 64 64 65 64 63 61 60 59 60 61 63 63 61 61 59 57 55 55 55 54 53 51 50 44 41 41 41 40 40 42 43 45 48 50 48 47 44 41 40 40 40 40 39 39

ECMWFFLT1_sfc_temp_006.txt.gz
Temp
77 77 76 77 76 76 76 76 76 76 76 76 76 76 77 76 76 76 76 75 75 75 75 74 74 74 74 74 73 72 72 71 71 71 70 70 70 69 68 68 69 69 69 69 69 69 71 71 71 71 70 70 70 69 69 70 70 71 70 69 69 69 69
75 76 76 77 76 76 76 77 76 77 76 76 76 76 77 76 76 76 76 76 76 76 75 75 74 74 74 73 73 71 71 71 71 72 70 69 71 69 70 69 69 69 68 69 69 70 70 71 71 70 69 71 71 70 70 70 70 70 70 69 68 68 69
75 76 76 76 76 76 76 77 77 77 77 77 77 77 76 76 77 77 77 76 75 76 76 75 74 74 74 73 72 71 71 70 70 70 69 69 69 69 69 69 69 69 69 69 69 70 71 71 70 70 70 70 70 70 70 70 70 69 69 69 69 70 69
74 75 76 76 77 77 77 77 77 78 78 78 78 78 77 77 78 78 78 77 76 76 75 75 74 74 74 73 72 71 70 70 71 71 70 70 69 69 68 68 68 69 68 68 70 71 71 71 70 69 71 69 70 70 69 70 70 69 69 69 69 69 68
75 76 76 75 76 76 76 76 77 77 78 79 79 78 78 79 78 78 78 78 78 77 77 76 76 75 74 74 73 72 71 71 70 71 70 70 70 69 69 68 68 68 69 69 69 70 70 69 69 68 69 69 70 69 69 69 69 69 69 68 68 68 68
74 74 74 75 76 76 77 77 78 78 79 79 78 78 79 80 80 79 79 78 78 78 77 76 75 75 74 74 74 73 72 71 71 70 70 70 69 68 69 69 68 69 69 69 70 70 70 69 69 69 69 69 69 69 69 69 69 69 69 68 68 68 68
74 74 75 75 76 76 77 77 78 79 79 80 80 80 80 80 80 80 80 79 79 77 77 76 76 75 74 74 73 73 71 71 71 70 71 70 70 69 69 69 70 69 70 69 69 69 69 69 69 69 69 69 69 69 69 69 69 68 68 67 67 67 67
75 74 74 76 77 77 77 77 78 79 79 79 79 79 79 80 80 80 79 80 79 79 78 78 76 75 74 74 74 72 72 72 71 71 71 70 69 70 69 69 70 70 69 69 69 69 70 69 70 69 69 69 69 69 69 68 68 68 67 67 67 67 67
76 75 75 76 77 77 78 77 78 78 78 77 78 78 79 79 80 80 80 80 80 79 78 79 78 76 75 74 73 72 72 72 71 71 70 71 70 71 70 70 70 70 70 70 70 69 70 70 69 69 69 69 69 68 68 68 68 68 67 67 67 67 67
73 72 73 76 77 78 77 77 77 76 76 76 77 77 78 79 79 80 80 80 80 79 79 79 79 77 75 74 73 73 72 71 71 71 71 72 71 72 71 72 71 71 70 70 70 69 69 70 69 69 69 69 69 68 68 68 67 67 67 67 67 67 67
72 72 72 73 74 75 75 75 75 75 76 76 76 77 78 78 79 79 79 80 80 80 80 80 79 77 76 75 74 73 72 72 72 71 71 73 73 72 72 73 73 72 71 71 70 70 69 69 69 69 68 68 69 68 68 68 68 67 67 67 67 67 67
70 70 71 72 73 73 73 74 74 75 75 76 76 77 77 77 79 79 80 80 81 81 80 80 80 78 76 76 74 73 72 72 72 73 72 73 73 73 73 74 72 71 71 71 71 70 70 69 69 69 68 69 69 69 69 68 68 68 68 68 67 66 67
70 70 71 72 72 73 72 72 73 74 75 76 77 77 78 78 78 79 78 79 81 81 80 79 79 77 76 76 75 73 73 73 72 72 73 71 71 71 71 73 72 71 71 72 72 71 70 69 69 69 69 69 69 69 69 68 68 67 67 67 66 66 66
71 69 70 70 71 71 71 72 72 73 74 75 76 77 77 78 79 78 78 79 80 80 80 79 78 77 76 75 74 73 73 74 71 69 69 69 69 70 71 70 70 70 70 71 71 72 71 70 69 69 69 69 69 69 68 68 68 67 67 67 67 66 66
69 70 70 70 70 71 71 71 71 72 73 74 75 75 76 77 77 77 78 79 79 80 80 79 78 76 76 75 74 73 74 73 72 69 69 70 69 69 69 69 70 70 69 70 70 71 72 71 70 69 68 68 68 68 68 68 68 68 68 67 67 66 66
71 71 71 71 71 71 71 72 72 72 72 73 74 75 76 76 76 77 77 78 79 78 79 78 77 76 75 74 74 74 74 70 68 68 68 69 69 68 69 70 70 70 69 69 70 70 70 70 69 70 69 68 67 68 67 67 68 67 65 66 69 68 67
71 71 71 71 71 71 71 71 71 70 71 72 73 74 75 75 76 76 78 78 79 78 79 79 77 76 75 74 74 73 71 67 68 69 69 69 69 69 69 70 70 69 69 69 69 69 69 69 69 69 69 69 68 67 67 68 68 65 63 64 66 68 68
71 71 71 71 71 71 70 70 69 70 71 72 73 73 74 74 75 76 76 77 78 79 79 77 77 76 74 74 73 71 68 67 68 69 69 69 68 69 70 69 69 68 68 68 68 68 69 68 68 68 69 68 68 68 68 68 66 63 63 64 64 65 68
72 71 70 70 70 70 71 71 71 71 72 72 73 73 75 75 75 75 76 76 76 77 77 76 76 75 74 73 72 70 68 68 69 69 69 68 68 69 69 68 68 67 67 68 69 69 67 68 68 68 67 68 68 68 69 69 66 63 63 63 63 64 66
70 70 70 69 70 70 70 70 70 71 72 73 74 76 76 76 76 76 76 77 76 76 75 75 75 74 73 72 71 69 69 69 69 69 69 68 68 68 68 68 68 68 69 70 69 68 67 68 68 68 67 68 68 68 68 68 65 63 62 62 62 63 64
67 68 68 67 67 68 69 70 70 70 71 72 74 74 74 74 76 75 75 75 74 74 74 74 73 71 71 70 70 69 69 69 70 68 67 68 68 68 67 67 67 68 68 69 68 67 67 67 67 68 68 69 68 67 67 69 64 61 60 59 59 60 63
68 68 68 68 69 68 69 70 72 72 72 74 73 73 75 75 75 76 75 74 74 73 73 72 71 71 70 70 70 70 70 69 67 66 67 67 67 67 67 67 67 67 67 67 66 67 67 67 68 68 68 67 67 66 67 70 63 60 59 59 58 60 64
69 70 70 70 72 72 72 72 73 73 72 71 72 73 74 74 75 75 73 73 72 72 72 71 71 70 70 70 70 69 69 68 67 67 66 66 67 67 67 67 66 66 67 66 66 66 66 67 68 68 68 67 67 67 67 68 63 59 57 56 57 59 63
71 70 69 69 67 68 68 69 70 71 72 70 70 72 72 74 74 73 72 71 70 71 70 71 70 70 70 70 69 69 69 68 68 67 67 66 67 66 66 66 67 67 67 66 66 66 68 68 66 66 67 67 66 66 67 68 65 59 57 56 57 59 63
69 68 67 68 69 68 67 67 68 70 70 69 71 70 72 73 73 72 71 70 70 70 70 69 69 69 69 69 69 69 69 68 68 68 67 65 66 65 65 65 65 66 66 67 67 67 66 67 65 64 64 66 66 66 67 66 63 59 59 58 56 59 63
69 69 67 67 66 66 67 69 71 69 69 70 70 70 70 72 72 71 70 68 69 69 68 67 67 68 69 69 69 69 68 68 68 67 66 65 65 65 65 65 65 65 65 65 66 64 64 64 64 63 63 64 65 65 65 64 65 65 59 56 54 56 62
67 68 68 68 68 70 69 69 69 68 68 67 67 67 69 70 69 67 67 67 67 66 66 66 67 67 68 68 68 68 68 68 67 65 64 64 64 64 65 65 65 65 65 64 64 63 63 63 63 62 62 62 62 63 63 64 64 62 54 52 52 54 58
70 70 70 69 68 68 67 67 65 65 66 66 67 68 69 69 67 65 66 66 65 65 66 66 66 67 67 67 67 67 67 66 65 65 64 64 64 64 65 66 67 68 65 63 62 63 63 63 62 62 62 62 62 62 62 63 64 60 53 51 49 50 53
65 65 66 66 66 67 67 65 64 64 65 66 67 68 68 68 66 65 65 64 64 66 66 66 67 67 67 67 67 67 66 66 66 65 65 66 66 66 66 66 66 66 66 64 63 63 63 63 63 62 60 61 60 60 60 60 62 57 57 50 48 48 50
65 65 66 67 67 66 65 64 64 64 65 65 66 67 68 68 65 65 64 63 65 66 67 67 67 67 66 66 66 66 66 66 66 66 67 67 67 67 66 64 65 65 64 63 62 62 63 62 62 61 60 59 59 59 58 58 59 57 56 54 49 48 47
64 65 66 66 66 66 64 63 63 64 64 65 65 67 67 67 66 65 63 64 66 66 66 66 66 66 66 66 66 66 66 65 66 66 66 67 66 66 65 65 65 64 63 64 63 62 61 60 61 60 60 59 60 59 58 58 57 58 56 53 49 46 45
65 65 65 65 65 65 64 64 64 64 64 64 65 66 67 67 67 65 64 66 67 67 66 66 66 65 65 66 66 66 66 65 65 65 65 66 65 66 65 65 64 63 63 62 62 61 60 60 60 59 59 60 61 59 58 57 57 56 55 55 54 52 49
62 62 63 64 65 66 64 64 65 64 64 64 64 66 67 67 67 67 66 66 67 67 66 66 66 65 65 65 65 65 65 65 64 64 64 64 65 66 66 65 63 63 62 61 60 59 59 60 61 60 59 60 59 58 57 57 56 55 55 56 56 56 55
62 62 62 62 64 64 63 64 64 64 64 63 64 65 65 66 65 66 66 68 68 68 67 66 66 65 65 65 65 65 65 65 69 64 61 61 63 63 61 61 62 61 60 60 59 59 59 62 61 60 61 60 59 58 57 57 56 55 54 54 54 54 53
62 61 61 62 63 64 64 64 65 64 64 63 63 64 64 64 66 67 67 68 68 67 66 66 66 65 65 65 65 65 66 65 64 60 59 57 58 57 56 57 60 61 61 57 57 61 64 64 62 63 63 63 59 58 58 57 57 58 53 55 51 53 53
62 62 62 62 63 63 64 65 64 63 62 62 63 64 64 64 66 67 69 68 68 67 66 65 64 63 63 64 64 64 63 62 61 60 60 60 58 54 53 48 42 45 56 58 53 49 45 50 62 64 62 59 56 57 60 60 59 49 45 43 42 41 42
62 62 62 62 62 62 62 63 64 63 63 62 63 64 65 65 66 67 68 68 68 68 66 64 63 62 62 62 62 62 62 60 59 60 59 59 59 57 56 53 49 41 40 45 46 43 41 44 47 51 54 59 56 50 47 47 43 41 41 40 40 39 38
62 62 63 63 62 62 62 63 63 63 62 62 63 64 64 65 66 66 68 67 67 67 65 65 63 61 61 62 62 64 63 62 62 61 60 58 58 57 56 55 53 51 43 40 40 41 40 40 41 42 45 48 50 50 49 43 40 39 39 39 39 39 39

ECMWFFLT1_sfc_temp_009.txt.gz
Temp
86 85 85 85 84 85 84 83 83 83 82 82 83 83 84 83 82 82 82 81 81 81 82 81 81 82 82 82 82 82 82 83 82 81 81 81 81 80 79 80 80 79 80 79 80 79 80 81 80 80 80 80 80 80 80 80 79 80 79 79 79 78 78
84 85 86 86 85 84 84 84 84 84 84 83 83 83 84 83 82 82 82 82 82 81 82 82 81 81 82 82 82 82 82 82 83 81 81 80 80 80 80 79 79 79 79 80 80 80 80 81 81 80 80 80 80 80 80 80 79 79 80 79 78 78 78
85 85 85 85 85 85 84 84 84 84 84 85 85 84 83 82 82 82 82 82 81 82 83 82 81 81 82 82 82 82 82 83 81 80 80 80 80 81 80 79 80 80 80 80 80 80 81 80 80 80 80 79 80 80 80 80 80 80 79 79 79 79 77
84 85 85 85 84 84 84 85 84 85 86 86 86 85 84 82 83 83 83 83 82 82 81 82 82 82 82 81 81 81 81 81 80 80 81 81 80 80 79 79 79 80 79 79 80 81 80 80 80 80 79 79 79 80 80 80 81 80 79 79 79 79 78
84 85 85 84 85 84 84 85 85 84 86 88 87 85 85 84 85 85 84 84 85 83 83 83 84 83 82 82 82 82 80 80 79 80 81 81 80 80 79 79 79 80 80 80 80 79 79 79 80 79 79 79 80 79 79 80 80 79 79 79 78 79 79
84 83 83 84 85 85 85 86 87 87 87 87 86 85 86 87 87 87 86 84 84 85 84 84 83 82 81 82 82 81 80 80 80 79 80 80 79 79 79 78 79 80 80 79 80 80 79 79 79 79 79 80 80 80 80 80 80 80 79 79 78 79 79
83 83 83 84 85 85 86 86 88 88 88 88 88 87 88 89 88 88 88 86 86 83 84 84 84 83 82 82 81 80 79 80 79 79 80 79 79 78 78 78 78 79 80 79 79 80 79 78 79 79 79 80 79 80 79 78 79 80 79 78 78 78 78
84 83 83 84 86 87 87 86 87 88 88 87 88 88 88 89 89 89 88 89 88 88 87 87 85 83 82 82 81 81 80 80 80 80 79 79 78 78 78 79 78 78 78 78 78 79 80 78 79 79 78 79 78 78 79 79 79 80 79 78 77 77 78
85 84 84 86 87 87 87 86 86 86 85 84 85 85 86 87 88 88 89 89 89 88 88 89 88 85 82 82 81 80 81 80 79 79 78 79 79 80 79 78 77 77 77 78 78 78 78 77 78 77 77 78 78 78 78 78 79 79 78 77 77 77 78
83 82 83 86 87 87 86 86 85 84 83 82 83 83 85 86 86 88 89 89 90 89 89 89 89 87 83 82 82 81 80 79 78 79 79 79 79 81 81 81 80 78 77 78 79 77 77 78 77 77 76 77 77 78 78 78 78 78 78 77 77 77 77
83 82 82 83 83 84 83 84 82 81 82 82 82 84 84 85 85 87 87 89 89 90 90 89 89 88 85 84 84 83 80 80 78 76 76 78 79 79 81 81 81 78 78 78 79 78 77 76 78 77 76 76 77 77 78 78 78 77 77 77 77 77 78
80 80 80 81 81 82 82 81 82 81 81 82 83 84 83 83 85 87 87 87 90 90 89 90 90 89 87 86 84 81 80 78 77 74 75 77 77 78 79 79 78 78 79 78 77 76 78 76 77 77 76 76 77 77 77 77 76 76 77 78 77 76 77
80 79 79 81 80 81 81 80 80 81 81 83 84 84 84 85 85 87 85 86 89 89 89 88 88 86 87 86 86 81 79 76 73 71 74 75 74 74 75 76 78 78 78 78 78 77 77 77 75 75 76 76 76 76 76 75 75 75 75 76 76 76 76
79 80 80 80 80 80 79 79 80 80 81 82 83 84 84 86 86 85 85 86 87 89 89 88 86 86 85 84 83 80 78 76 74 74 74 77 76 76 77 78 77 76 76 76 76 77 77 77 75 75 76 75 75 75 75 74 75 75 75 76 77 77 77
79 80 80 80 79 79 79 79 79 80 81 82 83 83 84 85 85 85 85 87 86 89 89 88 86 85 85 83 80 78 77 75 76 77 77 76 75 76 76 77 76 75 75 74 75 76 76 75 74 74 74 74 74 74 75 75 75 75 76 76 76 77 77
80 80 80 80 79 80 79 80 80 80 80 81 82 82 83 83 83 85 85 86 87 86 88 87 85 83 83 82 80 78 77 76 76 75 76 74 73 74 74 74 74 74 73 72 72 72 72 72 73 74 73 73 73 74 73 73 74 70 66 68 76 77 76
80 80 81 81 80 80 80 80 80 80 80 80 81 82 82 83 84 84 87 88 88 86 87 88 84 83 83 81 81 78 77 76 75 76 75 74 72 71 71 72 73 72 71 70 71 71 71 71 72 73 72 72 72 71 71 72 72 66 64 64 65 73 76
80 80 81 81 80 80 79 80 80 80 80 82 82 82 82 82 83 84 85 87 87 88 89 87 86 85 83 83 80 77 76 76 76 76 75 73 71 70 71 71 70 70 69 70 70 70 70 69 70 70 71 71 72 72 71 72 66 64 64 64 64 66 73
81 81 82 81 79 79 81 82 82 80 82 83 83 83 84 84 84 82 84 84 85 87 88 86 85 83 83 83 81 77 76 76 76 75 73 69 68 68 69 70 70 69 68 69 70 70 69 69 68 68 68 69 70 70 71 72 67 64 63 63 63 63 66
83 84 84 83 82 82 82 82 83 83 83 83 84 86 86 85 85 85 86 87 86 86 85 84 84 83 83 82 80 77 76 76 75 72 69 68 69 70 70 69 70 70 70 70 70 70 69 69 68 69 68 68 68 68 70 71 67 64 62 61 61 62 65
80 81 81 81 80 83 81 81 81 81 81 84 85 85 86 86 87 86 86 85 84 84 82 83 82 82 82 81 80 78 76 75 75 72 71 71 71 72 71 70 71 71 70 70 69 69 69 67 67 67 67 67 67 67 68 71 65 63 62 60 60 61 64
82 82 81 82 81 80 79 81 81 82 81 85 85 86 87 87 88 88 87 87 84 84 83 82 81 81 81 80 79 78 76 76 75 74 73 72 72 72 71 71 71 69 68 69 69 70 69 68 67 66 67 68 68 67 68 72 65 62 61 59 59 61 69
86 84 84 83 84 82 80 82 83 85 83 84 86 86 87 88 88 87 86 85 84 82 84 82 80 81 80 80 79 78 77 76 75 74 73 73 72 72 71 70 69 68 68 67 66 66 65 66 66 67 68 69 69 69 69 69 66 62 59 58 57 61 70
84 85 85 84 83 83 81 82 84 84 86 84 84 86 86 87 86 84 82 82 83 82 82 81 80 80 79 79 79 78 77 77 75 74 73 73 73 73 71 69 68 68 68 65 63 63 64 65 66 68 69 70 70 70 68 70 68 59 56 55 56 61 72
82 82 81 81 82 82 81 80 81 83 81 81 81 81 83 84 84 83 80 81 83 82 80 79 80 80 79 79 79 78 77 77 76 75 74 73 72 69 67 66 65 64 64 63 63 65 66 66 66 68 69 70 70 67 69 71 67 55 57 55 55 61 70
77 78 78 78 80 79 77 78 79 80 81 80 76 79 81 82 82 80 79 79 82 80 79 79 79 80 80 79 78 78 77 77 75 75 75 71 68 67 66 65 64 64 65 67 69 70 69 69 70 69 69 69 69 69 69 68 69 64 55 55 54 57 68
78 79 78 79 78 77 79 79 79 78 79 77 77 80 81 82 80 78 77 78 78 78 79 79 78 78 78 78 78 77 76 76 76 75 74 71 68 66 65 66 67 68 69 70 71 71 70 70 71 70 69 67 67 66 65 65 65 65 57 54 54 54 59
79 79 80 78 76 78 79 79 77 77 78 77 79 80 81 79 77 76 76 77 77 77 78 77 77 77 77 76 76 76 76 75 75 74 73 70 67 65 64 67 70 71 71 71 71 71 71 71 70 69 67 66 67 66 65 65 64 65 59 54 51 51 53
76 77 78 78 77 78 79 76 75 75 77 79 80 80 80 80 76 75 75 75 74 75 76 76 76 76 76 75 75 74 75 73 72 73 72 70 68 67 67 68 70 70 70 71 71 71 72 71 69 68 67 66 65 64 65 64 65 60 63 53 49 48 50
76 76 76 78 79 77 77 75 76 76 76 78 77 78 79 78 75 74 74 73 74 75 75 75 75 75 74 74 74 73 72 72 74 73 71 69 68 68 68 68 70 70 71 71 71 71 71 70 69 67 67 65 62 61 62 63 65 60 57 56 50 48 49
75 74 73 74 77 76 76 75 74 75 74 74 73 74 75 77 75 74 73 72 73 73 74 74 74 74 74 74 73 72 72 72 72 71 70 69 68 68 70 71 72 71 72 72 72 71 69 68 68 66 65 63 62 61 61 62 62 65 58 54 51 49 47
75 77 77 76 75 76 77 78 76 75 73 72 73 72 74 77 78 74 73 73 73 74 74 74 73 73 73 73 73 72 73 71 72 71 70 70 71 71 73 73 73 73 73 73 72 70 68 66 65 64 62 61 63 64 66 64 65 65 63 57 53 52 49
72 72 72 72 72 74 77 77 75 73 74 73 74 77 78 78 79 76 73 73 74 75 74 74 73 72 72 71 71 71 72 71 71 72 72 73 74 75 75 75 74 74 72 72 70 69 67 65 63 61 61 63 66 67 68 67 66 67 67 67 66 65 60
72 73 72 72 72 73 75 75 75 75 76 75 75 77 78 78 77 75 74 76 77 76 73 72 72 72 72 71 70 71 72 72 71 72 74 74 75 74 72 72 73 72 70 69 69 67 65 65 65 66 67 68 69 69 68 67 68 68 68 68 69 68 68
71 72 72 73 73 73 73 73 75 75 75 74 73 74 74 73 74 74 74 75 75 73 72 72 72 74 74 74 74 72 72 74 72 73 72 71 71 67 64 65 70 70 70 67 67 68 71 71 71 72 75 75 72 70 69 69 69 71 62 67 60 66 70
71 72 71 71 71 72 71 70 71 71 71 71 71 72 72 72 72 74 77 77 76 74 72 71 73 73 74 75 76 74 71 71 71 71 70 71 68 63 58 47 42 49 64 67 54 48 44 50 70 74 77 76 72 70 72 74 73 51 46 45 45 45 45
70 71 72 72 72 72 72 71 71 70 71 72 71 72 72 73 74 74 77 76 75 75 73 73 71 72 74 73 74 73 72 72 71 70 70 71 69 68 65 62 54 41 40 45 47 43 40 42 44 48 58 69 71 57 46 47 44 43 42 40 40 40 40
71 71 72 72 72 71 71 71 71 72 72 72 71 72 72 74 74 73 76 75 75 75 74 73 72 71 72 73 73 70 71 73 72 72 73 71 70 69 68 67 65 59 43 39 41 41 39 39 41 46 50 54 57 58 57 45 41 41 41 41 40 40 39

ECMWFFLT1_sfc_temp_012.txt.gz
Temp
96 95 95 94 93 93 93 92 91 91 90 90 90 91 91 91 90 90 89 88 87 87 87 87 87 87 87 87 88 88 88 87 87 87 87 87 88 87 87 87 86 86 88 87 86 87 87 87 87 87 86 85 85 85 84 84 84 84 83 83 83 83 82
95 96 95 95 94 93 93 92 91 92 91 91 91 90 92 90 89 90 89 88 87 87 88 88 87 87 87 88 88 88 87 87 87 87 88 87 88 88 88 87 87 86 87 88 88 88 87 87 87 86 85 85 85 85 85 84 83 83 83 83 82 82 82
96 96 96 95 94 94 92 93 92 92 92 93 93 92 91 89 89 89 89 88 87 87 88 88 87 87 88 88 88 87 88 88 87 87 87 88 88 89 88 88 87 88 88 88 87 87 87 86 86 85 86 85 85 84 84 84 83 83 83 83 82 82 81
94 95 96 95 94 93 93 93 92 93 95 94 93 93 91 89 90 90 90 90 88 88 87 88 88 88 88 87 87 87 87 87 88 88 89 89 88 88 87 87 87 88 87 87 88 88 87 86 86 85 85 84 84 85 84 84 84 83 83 82 82 82 82
94 96 96 94 95 93 93 93 93 92 95 97 95 92 92 91 92 91 91 91 92 89 90 90 91 90 89 89 89 89 88 88 88 88 89 89 88 88 87 88 87 88 87 88 87 86 85 85 85 85 84 84 84 84 83 83 83 83 82 82 82 82 83
94 93 94 95 95 95 94 95 96 97 97 97 95 93 94 95 95 95 93 91 91 92 90 90 90 89 88 89 89 89 89 88 88 88 88 88 87 87 87 87 87 87 86 84 86 86 85 85 85 85 85 85 85 84 84 83 83 83 82 82 81 83 83
95 94 94 94 95 95 95 95 98 98 98 98 98 96 97 98 96 97 97 94 94 91 92 92 91 91 89 89 88 88 87 88 88 88 89 88 88 87 87 87 86 87 86 84 84 85 84 83 83 84 84 85 84 84 83 82 82 83 82 81 81 81 82
97 95 94 95 97 98 98 96 97 99 97 97 98 98 97 98 98 99 98 98 97 97 95 96 93 90 89 89 89 88 88 89 89 89 87 86 87 87 87 87 86 86 85 85 85 85 85 82 83 83 83 84 83 83 83 82 81 84 83 81 81 81 82
98 95 95 97 97 99 99 97 96 96 94 93 94 94 96 97 99 98 98 99 98 97 97 99 97 94 90 89 88 88 89 89 88 87 86 87 87 89 89 88 87 87 86 86 87 85 85 84 84 83 82 82 80 80 81 80 81 81 82 81 81 81 81
96 93 93 96 98 100 98 98 95 93 92 91 91 92 94 95 96 98 99 100 100 99 99 99 99 96 91 89 89 89 88 88 87 88 90 89 88 90 91 91 89 87 86 86 87 84 83 83 83 82 81 80 80 80 80 80 80 80 81 81 81 80 80
95 92 92 94 94 95 95 95 92 90 90 89 89 92 92 93 94 97 97 99 100 100 101 99 98 98 94 92 92 91 88 89 89 88 87 89 91 91 92 92 90 86 84 83 83 84 82 81 81 80 80 79 79 79 79 79 79 79 81 81 81 80 80
91 90 89 90 92 93 92 91 90 89 89 88 90 91 90 91 94 96 97 97 101 101 100 100 100 99 96 95 92 89 89 88 89 88 87 89 91 91 89 88 84 82 80 84 84 82 81 79 80 80 79 79 80 79 79 78 78 79 80 81 81 79 79
91 89 88 90 89 91 90 89 88 88 88 90 91 91 91 92 93 95 93 95 99 100 100 97 98 95 97 96 95 90 90 90 88 87 89 86 85 81 80 80 80 81 82 82 81 81 80 81 79 80 79 79 80 79 79 78 78 77 77 78 79 78 77
88 90 89 89 89 88 87 87 87 87 87 89 90 90 91 93 94 93 93 94 96 99 99 99 96 95 94 93 92 90 90 90 88 86 87 86 79 75 75 77 79 79 79 79 80 81 80 80 78 79 80 79 79 78 78 77 77 76 77 77 78 77 77
91 91 89 89 87 87 87 87 86 86 87 88 90 90 90 92 93 92 93 94 94 98 98 96 94 93 93 92 90 89 89 89 89 87 85 80 78 74 75 76 77 78 78 78 79 79 80 80 80 79 78 79 78 77 77 76 75 76 76 76 77 77 76
93 92 91 90 88 88 87 87 87 86 87 87 89 89 91 90 90 92 92 93 95 94 97 95 93 91 91 91 89 89 89 87 84 84 82 80 77 74 72 74 76 77 77 78 80 80 79 79 79 80 79 77 77 78 77 75 74 71 68 71 75 76 76
93 93 93 91 89 89 88 88 88 87 86 87 88 88 89 90 90 92 95 95 96 93 96 96 91 90 90 89 89 88 87 84 83 83 81 79 78 77 75 75 77 77 77 78 80 79 79 80 80 81 80 79 79 78 77 75 74 66 64 65 66 72 74
93 92 92 91 90 89 88 88 87 87 87 89 89 89 89 89 90 92 93 96 96 97 97 95 93 91 88 89 89 88 86 85 83 82 80 77 77 77 78 79 79 79 79 79 79 79 80 80 79 80 80 80 81 80 77 74 66 63 63 64 63 65 72
94 93 92 90 89 88 90 91 90 88 90 92 91 90 91 91 92 90 92 93 94 95 96 94 92 89 88 88 88 87 86 84 83 82 80 77 77 78 79 78 78 79 79 79 79 78 77 78 77 77 79 79 78 78 77 75 65 63 62 63 63 63 66
94 95 94 94 92 92 91 91 91 91 92 91 92 95 95 93 93 92 93 95 94 94 92 91 91 90 89 88 87 87 85 84 82 81 80 79 78 78 78 78 79 80 81 80 78 77 77 78 77 76 77 77 76 75 75 75 64 61 61 61 61 62 64
90 91 92 92 92 94 91 89 90 90 90 93 95 94 94 93 94 93 93 93 92 91 90 91 90 89 89 88 87 87 85 84 83 81 81 79 79 78 78 78 79 80 81 80 78 77 76 77 75 75 75 75 75 74 74 76 62 60 60 59 59 60 63
93 93 92 93 92 91 89 91 90 92 90 93 94 95 95 94 95 95 96 96 93 91 91 90 89 89 88 87 87 86 85 84 83 83 82 80 79 78 77 78 78 78 78 78 78 78 77 75 75 74 74 74 74 73 72 75 61 60 59 58 58 60 66
97 96 95 94 94 92 90 91 91 93 90 92 94 93 94 96 98 97 96 95 93 90 92 90 88 88 87 87 88 87 85 85 83 83 82 81 79 78 78 78 78 77 77 75 75 75 75 75 74 74 74 73 74 73 72 73 64 58 58 58 58 62 67
96 96 97 96 93 93 90 91 92 90 92 91 92 95 96 98 97 95 92 92 92 90 90 89 87 87 87 87 87 86 86 84 84 84 83 81 80 78 78 78 77 76 76 74 72 72 74 73 74 74 75 74 74 74 73 75 66 57 57 56 57 62 67
95 96 96 95 95 93 92 90 91 92 92 92 94 94 95 96 96 93 90 90 93 91 89 87 87 87 86 87 87 86 85 84 84 84 82 81 80 79 78 77 74 74 73 73 71 69 68 68 69 70 74 77 75 70 74 77 69 57 58 57 57 62 68
90 90 91 93 94 93 90 89 89 90 92 92 90 92 92 94 92 89 87 89 93 90 88 87 87 87 88 88 86 86 85 85 83 83 81 80 80 79 79 77 76 74 73 74 73 71 70 70 70 70 71 74 75 74 75 75 74 64 56 56 54 59 67
89 90 90 92 89 85 87 88 89 90 91 87 88 91 92 91 88 86 87 88 88 87 88 88 87 86 86 86 86 85 84 84 83 81 81 80 79 78 77 76 74 72 72 72 73 71 69 70 72 72 73 75 75 77 77 76 72 66 54 54 54 56 60
89 90 90 86 84 86 89 90 87 87 88 87 88 89 90 87 85 84 84 85 85 86 88 86 85 85 85 84 84 84 83 83 82 81 78 78 77 75 74 74 73 72 72 73 73 71 71 72 72 74 75 76 77 77 76 72 68 72 56 54 52 53 55
85 85 85 85 86 89 89 88 88 89 89 92 92 90 89 88 83 83 84 83 83 85 85 85 85 84 83 82 83 83 83 81 80 78 77 76 77 76 73 73 73 72 72 73 73 73 73 73 74 75 75 74 75 75 73 71 68 63 64 54 51 51 51
87 88 89 91 91 89 89 86 87 88 88 89 88 88 87 84 82 81 80 78 80 82 83 83 83 83 81 81 81 82 80 79 79 79 76 75 76 75 74 73 73 72 72 73 73 74 74 74 75 75 75 74 72 71 69 68 68 62 62 59 52 50 49
86 87 88 88 89 88 88 86 83 84 83 83 83 83 83 83 81 78 76 76 79 80 82 82 81 81 80 80 80 79 78 78 77 76 76 75 76 74 73 73 73 72 72 73 74 75 75 74 75 74 74 74 71 67 66 66 66 66 61 58 54 50 48
85 86 87 88 86 87 87 87 85 83 82 81 83 82 83 83 82 79 79 80 80 82 82 80 79 78 79 79 78 77 77 76 76 76 76 76 77 75 75 75 75 74 73 75 76 76 76 74 75 75 74 71 71 68 68 67 66 66 62 58 55 54 51
81 82 83 83 85 86 87 87 86 85 85 84 87 89 90 88 87 83 81 80 82 82 81 79 79 78 78 77 77 76 77 76 76 77 76 76 77 76 75 75 76 76 74 76 77 76 75 75 75 73 71 69 70 70 68 66 65 66 68 69 67 66 59
80 80 81 82 83 86 88 88 87 85 84 82 84 87 87 87 86 84 84 85 85 83 80 79 79 80 79 79 77 76 76 76 74 75 77 77 78 77 75 74 76 76 75 76 76 74 74 76 74 74 74 72 71 69 69 67 69 72 75 75 74 72 70
80 80 81 81 81 81 81 82 83 83 83 82 83 84 84 85 87 87 85 85 85 82 81 80 79 80 81 80 79 77 76 77 75 78 78 77 75 71 70 72 78 78 79 76 75 76 80 80 77 75 77 77 72 69 69 72 72 77 68 73 62 71 78
81 81 81 81 82 82 80 80 81 80 80 80 81 82 82 82 83 85 88 87 85 83 80 78 80 81 82 82 82 80 77 76 78 79 78 79 76 73 65 49 42 51 71 74 56 47 43 52 73 75 78 76 73 73 72 74 78 54 46 44 42 41 44
79 80 81 82 82 81 80 79 80 80 79 79 80 81 81 81 83 84 86 84 83 83 80 80 80 82 82 81 81 78 78 78 78 77 76 76 76 75 74 72 61 43 39 47 48 44 40 40 41 46 50 66 75 61 45 47 45 44 44 41 41 41 42
79 79 81 82 81 79 79 79 78 79 78 79 80 80 80 82 83 82 85 82 82 82 80 80 80 80 82 83 80 75 76 79 78 77 76 75 75 76 75 74 71 64 45 39 42 43 40 40 40 43 49 49 59 66 65 48 42 41 42 41 40 41 40

ECMWFFLT1_sfc_temp_015.txt.gz
Temp
96 97 97 98 98 98 97 95 95 95 94 93 93 94 94 94 92 92 91 90 89 88 89 89 89 90 89 89 89 90 90 89 89 89 88 88 89 89 88 89 88 87 88 87 87 87 88 88 89 89 88 87 86 87 87 86 85 86 85 84 84 84 84
99 99 98 98 98 98 97 96 95 96 95 94 93 92 94 93 92 92 91 90 90 89 89 89 89 89 89 89 90 90 89 89 89 89 89 88 89 89 90 89 88 87 88 88 88 88 88 89 89 88 88 88 87 87 87 85 85 84 85 84 83 82 82
96 96 99 98 98 98 96 97 96 96 95 96 95 94 93 92 92 91 91 91 90 89 90 90 89 90 90 90 90 89 90 90 89 89 88 89 89 91 90 90 89 89 88 89 89 88 89 89 88 88 88 87 88 86 86 85 84 84 84 84 83 82 81
97 97 98 98 99 98 98 97 96 97 98 97 96 95 93 92 93 92 93 92 90 90 89 90 90 90 90 90 89 89 89 89 90 90 90 90 90 90 90 90 89 90 89 90 91 90 90 88 89 88 87 87 86 86 86 85 85 84 83 83 82 83 82
100 100 97 98 100 98 97 98 97 96 98 100 97 94 94 94 95 94 94 94 94 91 92 92 94 92 91 91 91 91 90 90 90 90 90 91 90 90 89 90 90 90 90 91 90 88 87 86 87 87 86 85 85 84 84 84 85 83 83 83 82 82 82
100 98 97 101 100 100 99 99 100 100 99 100 98 96 97 98 98 98 96 94 94 94 92 92 92 91 90 92 92 91 91 90 90 90 90 90 90 90 90 89 90 90 92 90 90 88 88 87 87 86 86 86 85 84 84 83 83 83 82 82 81 81 82
101 99 98 99 100 100 100 99 101 101 100 101 101 99 99 100 98 98 99 97 97 93 94 95 94 93 91 92 91 91 90 90 90 90 91 91 90 89 89 89 89 90 91 89 88 88 87 86 86 85 85 85 83 84 82 82 81 81 80 80 80 80 81
102 101 99 100 102 103 102 100 100 101 101 101 101 100 100 100 100 100 99 100 99 99 97 98 95 93 91 91 92 91 91 91 92 91 91 90 90 89 90 90 89 89 88 88 88 88 88 86 86 84 83 84 83 82 83 81 81 84 82 79 78 79 81
104 99 100 102 102 103 103 101 100 100 98 98 99 98 99 100 101 101 101 101 100 100 99 100 99 97 92 92 91 91 92 92 91 91 90 91 91 92 92 90 90 88 88 88 90 87 87 85 85 83 82 82 82 82 82 81 81 82 80 80 79 79 80
100 98 99 102 102 104 102 102 100 97 96 96 96 96 97 99 100 101 102 103 103 102 102 101 102 100 95 92 92 92 91 91 92 93 94 93 93 92 92 92 91 89 88 88 89 86 86 85 84 83 82 82 81 81 81 81 82 81 81 81 80 79 79
103 101 98 100 99 100 100 101 98 95 95 93 94 98 96 98 100 102 101 103 103 103 104 103 101 101 97 95 95 94 91 93 93 93 93 93 93 94 95 94 93 90 89 89 88 87 85 84 84 82 82 81 81 81 80 81 81 81 82 82 82 81 81
97 99 96 96 97 98 98 97 96 94 94 93 96 98 95 95 100 102 102 102 105 104 103 104 104 103 99 96 95 92 92 92 94 93 93 93 94 94 95 95 93 91 90 90 90 87 86 84 83 83 81 81 81 81 81 81 81 81 81 82 82 81 81
97 96 95 96 95 96 96 95 94 94 94 96 98 97 97 98 99 102 99 100 104 104 104 102 102 100 101 98 97 93 93 94 92 92 94 92 93 93 94 94 94 94 91 91 91 89 87 86 84 83 83 82 82 82 81 81 82 81 80 81 81 80 80
93 96 95 95 95 94 94 94 94 93 93 94 95 96 97 99 100 100 99 100 102 105 105 104 101 100 99 97 95 93 94 94 93 92 91 92 90 91 92 92 92 92 90 90 90 90 89 88 85 85 85 83 83 82 82 81 82 81 81 80 81 81 80
98 97 95 95 92 92 93 93 92 92 93 93 95 94 95 97 98 98 99 100 100 105 105 102 100 98 99 97 94 92 93 92 92 92 91 90 89 88 88 90 91 90 88 87 88 89 90 89 87 85 83 84 83 82 83 82 81 81 81 80 81 81 80
103 102 99 95 93 94 92 93 92 91 91 91 92 93 95 95 95 97 98 99 102 101 104 101 99 96 97 96 94 93 93 92 91 90 89 88 87 87 88 90 90 89 87 87 88 88 88 87 86 87 85 83 83 83 82 82 82 76 70 74 80 80 79
101 101 100 98 94 94 93 92 92 91 90 90 91 92 93 93 94 97 100 101 102 100 103 104 97 97 96 94 95 93 92 90 89 88 88 88 87 86 86 86 88 87 86 86 86 86 85 85 86 87 86 84 84 83 82 82 81 67 67 69 72 78 78
99 99 101 102 99 94 92 92 91 90 90 92 93 93 93 92 95 97 98 100 100 102 104 102 99 97 93 94 93 92 91 91 88 87 86 84 84 84 85 86 87 86 85 85 85 84 85 84 84 84 85 85 85 84 82 82 68 64 67 67 67 71 76
99 100 100 99 98 93 95 95 94 91 93 94 94 94 95 95 96 94 96 96 98 99 101 101 97 93 92 93 92 90 90 89 87 87 85 83 84 84 85 84 85 85 84 84 84 84 83 83 83 83 84 84 83 82 82 83 64 65 64 64 64 65 71
101 102 104 102 99 99 96 95 95 95 95 94 95 98 98 97 97 96 98 99 99 98 97 96 95 93 92 92 91 90 88 86 86 86 85 84 83 83 83 84 84 85 86 85 84 82 82 82 83 82 82 82 82 80 80 80 63 63 62 62 62 62 67
98 99 100 96 93 97 96 95 95 94 94 97 98 97 97 97 98 97 99 98 97 96 94 95 94 92 91 90 90 89 87 86 85 85 85 85 85 83 83 83 84 84 85 85 83 82 80 80 80 80 80 81 80 79 79 76 61 61 61 61 61 61 67
101 103 101 99 95 94 95 96 95 97 94 97 98 99 99 98 100 100 100 101 97 97 96 94 93 91 91 90 90 89 87 87 86 85 85 86 85 83 83 83 83 83 83 83 83 83 82 80 80 79 80 80 78 77 78 72 59 60 60 58 59 61 68
105 104 102 101 102 100 97 97 97 99 95 97 99 99 100 100 101 100 100 99 97 95 96 93 91 91 90 90 90 89 87 87 85 85 85 85 84 83 83 82 83 83 83 82 82 82 82 81 80 79 79 78 76 75 75 71 62 59 58 58 58 62 70
107 106 107 105 101 101 97 97 98 98 98 98 99 100 100 101 100 98 96 95 95 94 94 92 91 91 90 90 90 88 88 87 86 85 85 84 83 82 82 83 83 83 83 82 81 81 83 82 80 80 78 76 76 76 74 71 63 58 57 56 57 65 71
106 106 105 104 101 100 98 96 97 98 96 97 99 99 100 100 99 97 94 93 95 94 92 90 90 90 89 90 91 90 88 88 87 86 85 84 83 82 81 81 81 82 82 81 79 79 78 77 75 72 72 73 74 69 72 73 65 56 57 56 56 66 72
100 102 103 103 103 100 96 94 94 94 97 97 96 98 97 99 97 94 92 93 96 94 92 90 90 91 91 91 90 89 88 87 86 86 85 84 84 84 83 83 82 82 81 79 79 78 77 75 74 72 71 73 73 72 74 73 72 64 55 55 55 60 72
100 101 101 103 101 93 95 94 95 95 97 96 95 98 99 99 96 92 92 92 92 91 92 92 91 90 90 90 90 89 87 87 86 85 86 86 85 85 84 83 81 81 80 78 75 74 72 72 72 72 71 71 71 72 74 76 74 67 54 54 55 57 62
98 99 101 98 93 95 94 96 93 95 98 95 96 98 99 95 90 90 90 91 90 91 92 90 89 89 89 88 88 87 87 87 86 87 86 85 85 83 82 82 82 81 79 76 71 71 70 70 70 70 70 71 73 74 74 74 71 69 56 55 54 55 58
93 95 94 90 91 94 95 93 92 96 97 98 100 98 95 93 89 89 89 88 88 90 89 89 89 88 88 87 86 85 85 85 85 84 85 84 84 82 79 79 78 77 76 72 70 70 70 70 70 70 70 71 72 74 75 73 71 66 66 55 53 52 55
92 92 90 95 96 95 96 93 94 93 94 97 95 93 93 89 86 87 86 86 88 88 88 87 87 87 86 84 83 82 82 82 83 84 83 81 80 79 77 76 75 74 74 72 72 72 72 73 73 72 73 73 73 75 73 70 71 65 62 59 52 51 52
89 90 92 92 95 92 93 91 90 92 91 92 91 90 89 89 86 84 83 84 85 85 85 84 84 84 84 83 82 82 82 82 80 79 80 80 79 77 76 75 74 73 73 73 74 74 74 74 74 73 75 74 74 73 72 73 74 73 64 59 54 53 51
90 91 93 93 91 91 92 93 91 89 88 87 88 88 88 88 86 82 81 84 84 84 83 81 81 82 82 82 81 81 81 79 78 78 79 78 78 77 76 75 75 75 74 75 75 74 73 73 75 75 75 75 74 73 74 74 75 75 70 62 58 57 52
88 89 90 90 90 88 90 90 90 89 90 89 91 92 92 89 88 83 83 84 87 86 84 83 82 81 81 80 81 80 80 79 79 79 78 77 78 80 79 78 76 76 74 74 75 74 74 76 76 76 77 75 74 75 74 74 75 76 74 70 67 65 59
85 87 88 89 90 90 90 90 90 89 89 87 90 91 91 90 88 87 88 90 89 86 83 81 81 81 81 81 81 81 80 79 76 77 79 80 82 82 80 79 78 76 75 76 76 75 76 78 78 77 78 77 77 76 75 75 76 77 77 74 72 71 69
83 83 83 84 85 86 85 85 86 85 86 86 88 90 89 90 92 92 90 89 87 84 84 82 81 81 82 82 83 82 80 80 79 80 79 79 75 70 68 70 77 78 76 70 70 75 82 82 80 79 82 83 79 77 75 77 76 77 68 74 66 73 76
84 85 84 84 84 84 83 83 83 82 83 84 86 88 88 88 89 90 91 89 88 86 83 82 82 83 84 84 83 82 80 80 82 82 79 79 76 73 66 51 42 51 72 73 57 48 48 56 73 75 81 81 75 73 77 79 80 58 52 45 47 48 51
83 84 84 85 84 83 82 82 82 82 82 83 85 86 87 87 90 89 90 88 87 86 83 83 82 83 83 82 82 79 80 82 83 80 79 79 78 76 75 73 64 44 40 48 49 45 42 41 42 45 53 70 79 64 45 48 47 45 46 45 45 44 44
84 84 84 84 83 81 81 81 81 81 81 83 84 85 86 88 88 86 88 86 85 85 83 83 82 81 82 84 82 79 80 84 82 82 81 79 78 78 77 75 72 66 47 40 43 43 40 40 40 41 45 50 61 68 67 49 43 43 43 43 42 41 40

ECMWFFLT1_sfc_temp_018.txt.gz
Temp
98 97 95 94 93 94 93 91 92 93 92 91 91 92 93 92 90 89 88 87 86 85 86 86 86 86 86 86 86 86 86 86 85 85 85 85 85 85 85 85 85 84 84 83 83 83 83 85 84 84 83 83 83 83 82 82 81 82 81 80 81 79 80
96 96 97 97 97 95 93 92 92 94 94 93 91 90 92 91 89 89 88 87 86 86 86 86 86 86 86 86 86 86 86 86 86 85 86 85 85 85 86 85 84 84 84 84 84 84 84 85 85 84 83 83 83 83 83 82 81 80 80 80 79 78 80
95 96 97 96 96 96 93 94 93 94 94 95 94 93 91 89 89 88 88 88 86 86 87 86 86 86 86 86 86 86 86 86 86 86 86 86 86 88 87 86 86 85 86 85 85 85 86 85 85 84 84 82 84 82 82 82 80 80 80 79 79 79 78
94 96 97 96 95 94 94 95 94 96 97 97 96 94 91 89 90 89 89 89 87 86 86 87 87 87 87 86 86 86 86 86 86 87 87 87 86 87 86 86 86 86 85 85 86 86 86 85 85 84 84 82 82 83 83 82 81 80 80 79 78 79 78
94 97 97 95 97 95 95 95 96 95 97 99 97 92 92 91 92 92 91 91 91 88 89 88 90 88 87 87 87 87 87 86 86 87 87 87 87 87 86 87 87 87 86 87 86 84 84 84 85 84 84 82 83 82 82 82 81 80 79 79 77 78 78
94 94 95 97 98 97 96 98 99 100 99 98 97 94 95 95 95 95 93 91 91 91 89 88 88 87 87 88 88 88 87 87 87 86 87 87 86 86 87 87 87 87 87 85 87 86 85 84 84 84 84 84 84 83 83 82 82 81 79 79 78 78 79
94 95 95 96 97 98 97 98 100 101 100 99 99 97 96 96 95 95 95 93 93 89 90 90 90 89 88 88 87 87 87 87 87 87 88 88 87 86 86 87 86 87 87 86 85 86 85 84 83 83 83 84 82 83 81 80 80 80 79 77 77 77 77
95 95 95 96 99 100 100 99 99 100 98 97 98 99 97 96 96 96 95 95 94 93 92 92 90 88 88 88 88 88 88 88 89 88 87 88 87 87 87 87 87 86 86 86 86 86 86 84 85 84 83 84 82 81 81 80 79 81 79 77 77 77 79
97 95 96 98 99 101 101 99 98 96 92 92 94 95 96 95 96 96 95 95 94 93 92 93 93 91 88 88 88 88 89 89 88 88 87 88 88 89 89 89 88 87 86 87 88 86 86 85 85 83 82 82 81 80 80 79 79 79 79 77 77 76 77
94 94 94 98 99 100 98 97 95 92 91 91 92 92 94 95 95 96 96 96 96 95 94 94 94 93 90 89 89 89 89 88 88 89 90 90 89 90 90 90 89 88 88 88 89 86 85 85 84 83 81 81 80 80 79 79 79 79 79 77 77 76 76
94 92 93 96 96 96 96 97 93 90 90 89 90 94 93 94 94 96 95 97 96 96 96 95 95 94 92 91 91 91 89 90 90 89 89 90 90 90 91 91 91 89 89 88 88 87 86 84 84 83 81 81 80 79 79 80 79 78 79 78 78 77 77
91 92 91 93 93 94 94 91 91 90 90 90 92 94 91 91 95 97 96 97 98 97 97 96 97 96 93 92 91 89 89 89 90 90 89 90 91 91 91 92 91 90 89 89 88 88 87 85 84 83 81 81 81 80 79 79 79 78 79 79 79 77 78
92 91 91 95 93 93 91 89 89 90 90 93 95 94 94 94 95 97 93 95 99 98 98 96 96 94 94 93 92 89 90 90 89 89 90 89 90 91 91 92 93 92 89 89 89 88 88 86 84 83 82 81 81 81 80 79 79 78 78 78 78 77 77
92 93 94 93 93 92 91 91 91 90 91 93 94 94 95 96 97 95 94 95 98 100 100 99 96 94 93 92 90 89 90 90 89 88 89 90 88 89 90 91 91 89 89 88 88 89 89 88 85 84 83 82 81 80 80 79 79 78 78 78 78 78 77
95 95 94 94 91 90 90 91 90 90 92 92 94 94 95 96 96 94 94 97 96 101 100 97 95 94 94 91 89 88 89 89 89 89 88 88 87 87 88 89 88 89 88 87 88 89 90 89 87 84 82 82 81 80 81 80 79 79 79 78 78 78 78
96 98 95 93 92 93 91 91 92 90 91 91 92 92 95 94 93 95 96 97 99 97 100 96 94 91 93 92 89 89 89 88 88 88 88 87 87 86 87 88 88 89 88 86 87 87 87 87 86 85 83 81 81 81 80 80 80 74 69 73 78 77 78
97 97 97 94 91 92 91 91 92 91 90 90 91 92 93 93 93 95 100 100 101 97 100 99 93 93 92 90 90 89 89 88 88 88 87 87 87 86 86 86 88 87 86 86 86 86 85 86 86 86 84 82 81 81 80 80 79 68 66 69 72 76 77
95 94 95 94 92 92 91 92 91 90 91 93 93 93 93 92 94 96 97 100 100 102 103 100 96 95 90 91 89 89 88 88 88 87 87 87 87 86 86 87 86 86 86 85 85 84 86 85 85 84 84 83 82 81 80 80 71 65 66 68 69 72 77
96 96 95 91 91 90 94 95 94 91 94 95 95 94 96 94 95 93 95 95 97 99 102 101 97 91 90 91 90 89 88 88 88 87 87 87 86 86 85 85 85 85 85 84 85 84 83 83 83 83 83 82 81 80 81 81 66 63 64 66 67 68 75
97 100 100 101 97 94 94 93 94 94 94 94 95 98 98 96 96 95 97 98 98 98 97 95 94 92 91 90 89 89 88 88 88 87 86 86 85 85 84 84 84 85 86 85 84 82 82 83 82 81 81 81 80 79 80 80 62 63 63 64 64 66 72
93 95 96 96 96 96 92 92 92 92 92 96 97 96 96 96 97 96 97 97 96 94 92 93 92 91 91 90 89 89 88 88 86 85 84 84 84 83 83 83 83 84 84 84 83 81 81 81 81 80 80 80 80 79 78 74 59 61 61 61 63 65 71
99 101 100 99 95 93 90 94 93 95 93 95 95 97 98 97 98 98 98 99 97 96 95 93 91 91 90 89 89 89 88 87 86 84 83 83 83 82 82 82 82 82 83 83 83 83 82 81 82 81 80 80 79 76 72 66 59 60 60 60 62 65 72
103 102 103 100 101 96 93 95 95 97 93 95 97 97 97 99 99 97 97 97 97 94 97 93 90 90 89 89 89 86 86 86 85 84 83 83 82 82 82 81 81 82 83 82 82 82 81 81 80 80 80 78 76 74 68 64 60 59 58 59 61 65 71
105 104 104 104 100 97 94 95 96 96 96 96 96 97 98 98 98 96 94 94 95 94 95 91 89 89 88 88 88 85 86 85 85 84 84 83 83 82 82 82 82 82 82 81 80 80 81 81 80 80 79 77 76 74 69 67 60 56 56 57 60 65 70
105 105 104 103 102 97 98 95 95 98 95 95 95 97 97 98 97 96 92 92 95 95 92 89 88 88 88 88 88 86 86 85 85 84 84 83 83 83 82 82 81 82 81 81 81 78 76 77 77 76 76 76 75 68 68 66 60 55 58 58 58 66 70
98 101 102 103 105 101 95 92 92 94 96 95 94 96 96 97 95 92 91 92 95 94 91 89 88 89 90 89 87 86 85 85 84 84 84 84 83 82 81 81 81 80 80 79 79 78 76 75 75 73 73 72 70 69 69 66 64 60 56 56 57 62 71
95 99 102 105 103 93 95 93 94 95 97 94 93 97 98 97 94 91 90 91 91 91 92 91 89 89 89 87 87 86 85 85 85 84 84 84 82 82 81 80 79 80 78 78 75 74 74 75 75 73 71 70 70 70 69 68 66 62 55 55 55 58 64
94 97 106 99 93 92 96 97 93 95 98 93 94 97 97 94 90 89 88 89 89 90 92 90 89 88 88 86 86 86 85 84 84 85 84 84 83 81 80 80 81 80 79 74 73 73 74 74 72 71 70 70 71 71 71 69 66 66 56 55 54 55 58
92 93 93 96 94 96 97 94 93 96 97 98 98 98 97 95 88 88 88 88 88 91 90 89 89 88 86 85 85 84 84 84 84 85 85 84 82 80 78 79 78 74 72 72 72 71 71 70 70 69 69 69 70 71 72 71 68 63 63 55 53 53 55
91 91 94 97 97 95 97 92 93 94 96 98 96 95 95 91 87 87 87 87 89 89 88 88 87 86 85 84 84 84 83 83 84 83 83 82 81 79 77 76 74 72 72 71 71 70 70 70 69 69 69 69 70 71 72 72 71 64 62 60 53 52 53
93 91 93 94 95 93 94 93 91 93 94 93 93 92 91 90 87 86 86 86 86 86 86 86 85 84 84 84 83 82 82 81 80 80 81 81 80 77 75 74 74 71 71 72 72 71 70 70 70 70 70 70 70 71 70 70 71 70 64 61 56 54 52
88 88 92 92 92 91 92 93 92 93 91 89 89 88 87 88 87 83 84 86 86 86 86 85 83 82 81 80 80 81 80 79 79 80 80 79 79 77 76 75 74 72 71 72 72 71 70 70 71 71 71 71 71 71 71 70 71 70 67 61 58 56 53
73 78 83 87 90 91 92 93 92 89 88 87 88 89 89 87 86 85 84 84 87 86 84 83 81 79 79 80 80 79 79 79 80 80 79 78 78 78 77 77 75 73 72 72 73 72 71 72 72 72 72 72 72 72 70 71 71 71 67 66 64 64 59
72 71 71 78 81 83 82 89 88 86 85 84 85 86 86 87 87 87 86 87 87 86 83 80 80 81 80 81 79 78 79 79 77 77 78 78 79 78 76 75 75 74 72 72 73 72 73 73 73 73 73 73 74 72 71 71 72 71 69 69 68 68 66
76 77 78 79 78 81 80 80 82 83 83 84 84 83 85 85 85 87 87 87 86 84 82 80 79 80 81 82 81 80 78 78 77 78 77 72 65 61 61 66 74 75 70 67 67 73 77 76 75 76 78 77 74 73 72 74 72 74 64 70 62 67 68
77 80 80 80 81 81 81 81 82 83 83 84 85 85 82 84 86 88 90 87 85 83 80 79 80 80 81 81 80 79 77 76 77 77 74 71 69 65 60 50 42 54 71 69 57 47 48 57 73 73 78 78 72 72 75 75 76 58 55 54 53 55 57
73 76 77 77 78 79 80 80 80 82 82 84 85 86 87 86 87 86 86 85 84 83 80 80 78 79 80 79 78 76 76 78 78 77 75 73 71 71 67 65 59 44 41 49 48 44 42 42 44 47 57 72 70 58 48 53 50 46 50 50 48 46 45
79 77 76 78 80 79 79 79 80 81 81 84 85 86 85 86 86 84 86 84 83 82 80 80 79 79 80 80 79 76 77 80 78 78 76 74 73 72 70 68 65 61 47 41 43 44 41 41 41 43 45 52 61 65 60 49 45 45 45 45 44 44 43